FLOCK 2K-31 (42869 NORAD) Tracking and Keplerian Element Data

This shows tracking and keplerian element data for the satellite.

Feedback or suggestion? Click here.




ElementValue
Catalog42869
NameFLOCK 2K-31
Epoch Orbit23595
Epoch Day269.05060753
Epoch Year2021
RAAN116.935
Inclination96.8398
Eccentricity0.0009397
Argument of Perigee63.7804
Mean Anonmoly296.4413
Mean Motion15.47969165
Decay Rate0.00021509
L11 42869U 17042AW 21269.05060753 .00021509 00000-0 41242-3 0 9992
L22 42869 96.8398 116.9350 0009397 63.7804 296.4413 15.47969165235951

Live tracking and technical data element details for FLOCK 2K-31 (NORAD 42869). FLOCK 2K-31 can be tracked NOW for your location showing map with azimuth and elevation plus other details from your city location.

Track the satellite on the map from your city or location and see movement details for azimuth, elevation, latitude, longitude, range, height, and movement on the map or in text.







IsCatalogInMostPopularTable: catalog: 42869, numindb: 608
Update: records affected: 1



GetName: 42869 FLOCK 2K-31

Hit Count: updated at: Mon, 27 Sep 2021 01:21:54 GMT